Location: Newark
(11.2914°S, 14.4718°E)
Time: 21:41:53
(UTC+00:00)

Tiros 1 - Visible Passes

Search period start: 18 September 2019 00:00
Search period end: 28 September 2019 00:00
Orbit: 631 x 664 km, 48.4° (Epoch: 18 September)

Date Brightness Start Highest point End Pass type
(mag) Time Alt. Az. Time Alt. Az. Time Alt. Az.
26 Sep 9.1 18:43:50 10° NNW 18:45:12 19° NNW 18:45:12 19° NNW visible
27 Sep 8.9 17:30:10 10° NNE 17:32:22 13° NE 17:33:50 12° ENE visible
27 Sep 9.3 19:09:49 10° WNW 19:11:35 22° WNW 19:11:35 22° WNW visible
